Preview of NWS' New Version of Forecast
This preview is not operational and should not be used for support decisions.

Regional Weather Roundup (RWR)

Issued by National Weather Service (NWS)

                            
000
ASUS44 KMEG 210700
RWRTN 
TENNESSEE HOURLY STATE WEATHER ROUNDUP
NATIONAL WEATHER SERVICE MEMPHIS TN
100 AM CST THU FEB 21 2019

TNZ002-004-019-021-049-052-054-088>092-210800-
WEST TENNESSEE
  
CITY           SKY/WX    TMP DP  RH WIND       PRES   REMARKS
MEMPHIS INTL   FAIR      36  36 100 NW5       30.07S WCI  32          
NWS MEMPHIS      N/A    N/A N/A N/A MISG        N/A                   
JACKSON        FAIR      33  33 100 CALM      30.09S FOG              
DYERSBURG      FOG       35  35 100 CALM      30.11R VSB 3/4          
$$

TNZ008-025-027-028-033-062-065-066-210800-
NORTH MIDDLE TENNESSEE
  
CITY           SKY/WX    TMP DP  RH WIND       PRES   REMARKS
NASHVILLE      CLOUDY    47  41  80 NW9       30.08R                  
CLARKSVILLE    CLOUDY    42  39  89 S6        30.09R                  
SMYRNA         CLOUDY    46  44  93 N8        30.09R                  
CROSSVILLE     CLOUDY    50  49  96 CALM      30.04R FOG              
$$

TNZ061-075-076-078-094-096-097-210800-
SOUTH MIDDLE TENNESSEE
  
CITY           SKY/WX    TMP DP  RH WIND       PRES   REMARKS
$$

TNZ017-018-042-046-047-210800-
NORTHEAST TENNESSEE
  
CITY           SKY/WX    TMP DP  RH WIND       PRES   REMARKS
TRI CITIES     CLOUDY    45  45 100 CALM      30.03R                  
$$

TNZ012-013-036-069-073-074-210800-
CENTRAL EAST TENNESSEE
  
CITY           SKY/WX    TMP DP  RH WIND       PRES   REMARKS
KNOXVILLE      LGT RAIN  48  47  96 S5        30.03R FOG              
OAK RIDGE      LGT RAIN  51  51 100 VRB3      30.04R FOG              
$$

TNZ083-085-099-210800-
SOUTHEAST TENNESSEE
  
CITY           SKY/WX    TMP DP  RH WIND       PRES   REMARKS
CHATTANOOGA    CLOUDY    48  45  89 S6        30.05S FOG              
$$

SKY/WX REPORTED AS FAIR MEANS FEW OR NO CLOUDS BELOW
12 THOUSAND FEET.